Weather History for KAUH - February, 2013

Change the Weather History Date:

Saturday, February 2, 2013

  Actual Average Record
Temperature  
Mean Temperature 42 °F -  
Max Temperature 54 °F 33 °F 71 °F (1992)
Min Temperature 29 °F 11 °F -11 °F (1978)
Degree Days  
Heating Degree Days 24    
Moisture  
Dew Point 30 °F    
Average Humidity 71    
Maximum Humidity 96    
Minimum Humidity 38    
Precipitation  
Precipitation 0.00 in - - ()
Sea Level Pressure  
Sea Level Pressure 30.12 in    
Wind  
Wind Speed 11 mph (WNW)    
Max Wind Speed 25 mph    
Max Gust Speed 32 mph    
Visibility 10 miles    
Events      
Averages and records for this station are not official NWS values.
T = Trace of Precipitation, MM = Missing Value Source: NWS Daily Summary

Daily Weather History Graph

Daily Weather History Graph

Search for Another Location

Airport or City:

Trip Planner

Search our weather history database for the weather conditions in past years. The results will help you decide how hot, cold, wet, or windy it might be!

Date:

Astronomy

Feb. 02, 2013 Rise Set
Actual Time 7:41 AM CST 5:50 PM CST
Civil Twilight 7:12 AM CST 6:19 PM CST
Nautical Twilight 6:39 AM CST 6:52 PM CST
Astronomical Twilight 6:07 AM CST 7:24 PM CST
Moon 12:01 AM CST (2/2) 10:49 AM CST (2/2)
Length of Visible Light 11h 07m
Length of Day
10h 09m
Waning Gibbous, 59% of the Moon is Illuminated
Feb 2
Waning Gibbous
Feb 3
Last Quarter
Feb 10
New
Feb 17
First Quarter
Feb 25
Full

Hourly Weather History & Observations

Time (CST) Temp. Windchill Dew Point Humidity Pressure Visibility Wind Dir Wind Speed Gust Speed Precip Events Conditions
12:15 AM 33.6 °F 27.5 °F 31.6 °F 92% 30.08 in 10.0 mi NW 6.9 mph - N/A   Scattered Clouds
12:35 AM 32.0 °F 24.8 °F 31.1 °F 96% 30.08 in 10.0 mi NW 8.1 mph - N/A   Scattered Clouds
12:55 AM 32.5 °F 24.8 °F 30.7 °F 93% 30.08 in 10.0 mi NW 9.2 mph - N/A   Clear
1:15 AM 31.8 °F 26.2 °F 29.7 °F 92% 30.08 in 10.0 mi WNW 5.8 mph - N/A   Clear
1:35 AM 30.4 °F 24.5 °F 28.6 °F 93% 30.08 in 10.0 mi WNW 5.8 mph - N/A   Clear
1:55 AM 29.8 °F 24.9 °F 28.2 °F 94% 30.09 in 10.0 mi WNW 4.6 mph - N/A   Scattered Clouds
2:15 AM 30.2 °F 24.3 °F 29.1 °F 96% 30.10 in 10.0 mi NW 5.8 mph - N/A   Scattered Clouds
2:35 AM 31.1 °F 26.4 °F 29.3 °F 93% 30.10 in 10.0 mi West 4.6 mph - N/A   Mostly Cloudy
2:55 AM 31.1 °F 24.5 °F 29.1 °F 92% 30.10 in 10.0 mi West 6.9 mph - N/A   Mostly Cloudy
3:15 AM 31.3 °F 23.3 °F 29.1 °F 92% 30.11 in 10.0 mi SW 9.2 mph - N/A   Overcast
3:35 AM 30.4 °F 22.2 °F 28.8 °F 94% 30.10 in 10.0 mi WSW 9.2 mph - N/A   Mostly Cloudy
3:55 AM 31.1 °F 23.7 °F 29.3 °F 93% 30.10 in 10.0 mi WSW 8.1 mph - N/A   Scattered Clouds
4:15 AM 31.1 °F 23.7 °F 29.3 °F 93% 30.10 in 10.0 mi West 8.1 mph - N/A   Scattered Clouds
4:35 AM 31.3 °F 23.3 °F 29.8 °F 94% 30.11 in 10.0 mi West 9.2 mph - N/A   Mostly Cloudy
4:55 AM 32.0 °F 24.2 °F 30.7 °F 95% 30.11 in 10.0 mi West 9.2 mph - N/A   Mostly Cloudy
5:15 AM 33.4 °F 24.8 °F 31.6 °F 93% 30.12 in 10.0 mi West 11.5 mph - N/A   Mostly Cloudy
5:35 AM 33.8 °F 25.3 °F 31.8 °F 92% 30.12 in 10.0 mi West 11.5 mph - N/A   Overcast
5:55 AM 34.0 °F 26.0 °F 31.6 °F 91% 30.12 in 10.0 mi West 10.4 mph - N/A   Overcast
6:15 AM 33.8 °F 25.8 °F 31.8 °F 92% 30.12 in 10.0 mi West 10.4 mph - N/A   Overcast
6:35 AM 34.0 °F 26.0 °F 32.0 °F 92% 30.12 in 10.0 mi West 10.4 mph - N/A   Overcast
6:55 AM 34.5 °F 26.2 °F 32.0 °F 90% 30.12 in 10.0 mi West 11.5 mph - N/A   Overcast
7:15 AM 34.0 °F 24.6 °F 31.6 °F 91% 30.13 in 10.0 mi West 13.8 mph - N/A   Overcast
7:35 AM 32.9 °F 25.3 °F 30.9 °F 92% 30.13 in 10.0 mi WNW 9.2 mph - N/A   Scattered Clouds
7:55 AM 32.2 °F 24.4 °F 30.2 °F 92% 30.14 in 10.0 mi WNW 9.2 mph - N/A   Clear
8:15 AM 32.9 °F 24.7 °F 30.7 °F 92% 30.15 in 10.0 mi WNW 10.4 mph - N/A   Clear
8:35 AM 34.0 °F 25.5 °F 31.1 °F 89% 30.15 in 10.0 mi WNW 11.5 mph - N/A   Scattered Clouds
8:55 AM 34.9 °F 27.1 °F 32.0 °F 89% 30.15 in 10.0 mi WNW 10.4 mph - N/A   Clear
9:15 AM 36.0 °F 28.5 °F 32.2 °F 86% 30.15 in 10.0 mi West 10.4 mph - N/A   Clear
9:35 AM 37.4 °F 30.8 °F 33.1 °F 84% 30.15 in 10.0 mi WNW 9.2 mph - N/A   Clear
9:55 AM 38.8 °F 32.6 °F 33.6 °F 82% 30.15 in 10.0 mi WNW 9.2 mph - N/A   Clear
10:15 AM 40.1 °F 33.6 °F 34.3 °F 80% 30.15 in 10.0 mi WNW 10.4 mph - N/A   Clear
10:35 AM 41.2 °F 34.1 °F 34.7 °F 78% 30.16 in 10.0 mi WNW 12.7 mph 17.3 mph N/A   Clear
10:55 AM 42.1 °F 36.1 °F 34.9 °F 76% 30.15 in 10.0 mi West 10.4 mph - N/A   Clear
11:15 AM 42.8 °F 35.8 °F 35.1 °F 74% 30.16 in 10.0 mi West 13.8 mph 19.6 mph N/A   Clear
11:35 AM 44.1 °F 37.7 °F 34.5 °F 69% 30.15 in 10.0 mi West 12.7 mph - N/A   Clear
11:55 AM 45.3 °F 39.7 °F 34.7 °F 66% 30.15 in 10.0 mi West 11.5 mph - N/A   Clear
12:15 PM 46.9 °F - 34.5 °F 62% 30.14 in 10.0 mi West 15.0 mph - N/A   Clear
12:35 PM 48.6 °F - 34.9 °F 59% 30.13 in 10.0 mi West 16.1 mph 23.0 mph N/A   Clear
12:55 PM 49.6 °F - 34.3 °F 56% 30.11 in 10.0 mi WNW 16.1 mph 24.2 mph N/A   Scattered Clouds
1:15 PM 50.0 °F - 31.6 °F 49% 30.11 in 10.0 mi NW 17.3 mph 29.9 mph N/A   Scattered Clouds
1:35 PM 51.4 °F - 31.8 °F 47% 30.09 in 10.0 mi WNW 19.6 mph - N/A   Scattered Clouds
1:55 PM 52.5 °F - 30.6 °F 43% 30.08 in 10.0 mi WNW 20.7 mph 32.2 mph N/A   Mostly Cloudy
2:15 PM 54.5 °F - 31.6 °F 42% 30.08 in 10.0 mi WNW 24.2 mph 29.9 mph N/A   Mostly Cloudy
2:35 PM 54.0 °F - 29.7 °F 39% 30.07 in 10.0 mi WNW 25.3 mph 32.2 mph N/A   Scattered Clouds
2:55 PM 54.0 °F - 30.4 °F 41% 30.07 in 10.0 mi WNW 19.6 mph 27.6 mph N/A   Clear
3:15 PM 53.8 °F - 28.6 °F 38% 30.07 in 10.0 mi NW 17.3 mph 28.8 mph N/A   Clear
3:35 PM 54.3 °F - 29.5 °F 39% 30.06 in 10.0 mi NW 16.1 mph - N/A   Clear
3:55 PM 53.8 °F - 29.1 °F 39% 30.06 in 10.0 mi NW 20.7 mph 24.2 mph N/A   Clear
4:15 PM 53.1 °F - 28.6 °F 39% 30.06 in 10.0 mi NW 23.0 mph 28.8 mph N/A   Clear
4:35 PM 52.2 °F - 28.6 °F 40% 30.06 in 10.0 mi NW 19.6 mph 23.0 mph N/A   Clear
4:55 PM 51.3 °F - 29.1 °F 43% 30.07 in 10.0 mi NNW 17.3 mph 23.0 mph N/A   Scattered Clouds
5:15 PM 50.2 °F - 29.5 °F 45% 30.08 in 10.0 mi NNW 15.0 mph 21.9 mph N/A   Scattered Clouds
5:35 PM 48.7 °F - 28.8 °F 46% 30.08 in 10.0 mi NW 15.0 mph - N/A   Scattered Clouds
5:55 PM 45.0 °F 39.3 °F 29.1 °F 54% 30.08 in 10.0 mi WNW 11.5 mph - N/A   Scattered Clouds
6:15 PM 42.1 °F 36.1 °F 28.0 °F 58% 30.08 in 10.0 mi NW 10.4 mph - N/A   Scattered Clouds
6:35 PM 41.9 °F 36.3 °F 28.0 °F 58% 30.09 in 10.0 mi WNW 9.2 mph - N/A   Mostly Cloudy
6:55 PM 39.7 °F 33.7 °F 28.2 °F 63% 30.10 in 10.0 mi WNW 9.2 mph - N/A   Mostly Cloudy
7:15 PM 44.8 °F 37.4 °F 27.3 °F 50% 30.11 in 10.0 mi NW 17.3 mph 29.9 mph N/A   Scattered Clouds
7:35 PM 44.2 °F 36.7 °F 27.7 °F 52% 30.11 in 10.0 mi NNW 17.3 mph - N/A   Scattered Clouds
7:55 PM 42.8 °F 35.1 °F 28.0 °F 56% 30.12 in 10.0 mi NNW 16.1 mph - N/A   Clear
8:15 PM 40.8 °F 34.5 °F 28.2 °F 61% 30.13 in 10.0 mi NW 10.4 mph - N/A   Clear
8:35 PM 38.1 °F 31.2 °F 27.9 °F 67% 30.13 in 10.0 mi NW 10.4 mph - N/A   Clear
8:55 PM 38.5 °F 30.7 °F 27.9 °F 66% 30.13 in 10.0 mi NW 12.7 mph - N/A   Clear
9:15 PM 38.7 °F 30.9 °F 27.9 °F 65% 30.13 in 10.0 mi NW 12.7 mph - N/A   Clear
9:35 PM 39.9 °F 32.1 °F 27.5 °F 61% 30.15 in 10.0 mi WNW 13.8 mph - N/A   Clear
9:55 PM 39.9 °F 32.1 °F 27.7 °F 62% 30.16 in 10.0 mi NW 13.8 mph - N/A   Clear
10:15 PM 38.5 °F 30.7 °F 28.2 °F 67% 30.18 in 10.0 mi NNW 12.7 mph - N/A   Clear
10:35 PM 37.0 °F 28.9 °F 28.0 °F 70% 30.18 in 10.0 mi NNW 12.7 mph - N/A   Clear
10:55 PM 38.3 °F 28.7 °F 27.7 °F 66% 30.18 in 10.0 mi NW 18.4 mph 23.0 mph N/A   Clear
11:15 PM 37.9 °F 29.2 °F 27.3 °F 66% 30.18 in 10.0 mi NW 15.0 mph - N/A   Clear
11:35 PM 37.6 °F 27.1 °F 27.0 °F 66% 30.19 in 10.0 mi NW 20.7 mph 26.5 mph N/A   Clear
11:55 PM 37.0 °F 27.4 °F 27.0 °F 67% 30.19 in 10.0 mi NW 17.3 mph - N/A   Clear